Time,TemperatureF,DewpointF,PressureIn,WindDirection,WindDirectionDegrees,WindSpeedMPH,WindSpeedGustMPH,Humidity,HourlyPrecipIn,Conditions,Clouds,dailyrainin,SolarRadiationWatts/m^2,SoftwareType,DateUTC
2013-03-05 00:02:00,34.0,19.0,-100.00,NNE,20,0.0,0.0,54,0.00,,,0.00,0.000000,,2013-03-05 08:02:00,
2013-03-05 00:11:00,34.0,19.0,-100.00,NNE,20,0.0,0.0,54,0.00,,,0.00,0.000000,,2013-03-05 08:11:00,
2013-03-05 00:21:00,34.0,19.0,-100.00,NNE,20,0.0,0.0,54,0.00,,,0.00,0.000000,,2013-03-05 08:21:00,
2013-03-05 00:52:00,34.0,19.0,-100.00,SSW,192,0.0,4.0,54,0.00,,,0.00,0.000000,,2013-03-05 08:52:00,
2013-03-05 01:01:00,34.0,19.0,-100.00,SSW,192,0.0,4.0,54,0.00,,,0.00,0.000000,,2013-03-05 09:01:00,
2013-03-05 01:11:00,34.0,19.0,-100.00,SSW,192,0.0,4.0,54,0.00,,,0.00,0.000000,,2013-03-05 09:11:00,
2013-03-05 01:21:00,34.0,19.0,-100.00,SSW,192,0.0,4.0,54,0.00,,,0.00,0.000000,,2013-03-05 09:21:00,
2013-03-05 01:52:00,34.0,22.0,-100.00,North,11,2.0,0.0,61,0.00,,,0.00,0.000000,,2013-03-05 09:52:00,
2013-03-05 02:01:00,34.0,22.0,-100.00,North,11,2.0,0.0,61,0.00,,,0.00,0.000000,,2013-03-05 10:01:00,
2013-03-05 02:11:00,34.0,22.0,-100.00,North,11,2.0,0.0,61,0.00,,,0.00,0.000000,,2013-03-05 10:11:00,
2013-03-05 02:21:00,34.0,22.0,-100.00,North,11,2.0,0.0,61,0.00,,,0.00,0.000000,,2013-03-05 10:21:00,
2013-03-05 02:52:00,32.0,21.0,-100.00,NNE,16,0.0,4.0,64,0.00,,,0.00,0.000000,,2013-03-05 10:52:00,
2013-03-05 03:01:00,32.0,21.0,-100.00,NNE,16,0.0,4.0,64,0.00,,,0.00,0.000000,,2013-03-05 11:01:00,
2013-03-05 03:11:00,32.0,21.0,-100.00,NNE,16,0.0,4.0,64,0.00,,,0.00,0.000000,,2013-03-05 11:11:00,
2013-03-05 03:21:00,32.0,21.0,-100.00,NNE,16,0.0,4.0,64,0.00,,,0.00,0.000000,,2013-03-05 11:21:00,
2013-03-05 03:52:00,33.0,23.0,-100.00,NNE,12,0.0,0.0,67,0.00,,,0.00,0.000000,,2013-03-05 11:52:00,
2013-03-05 04:02:00,33.0,23.0,-100.00,NNE,12,0.0,0.0,67,0.00,,,0.00,0.000000,,2013-03-05 12:02:00,
2013-03-05 04:11:00,33.0,23.0,-100.00,NNE,12,0.0,0.0,67,0.00,,,0.00,0.000000,,2013-03-05 12:11:00,
2013-03-05 04:22:00,33.0,23.0,-100.00,NNE,12,0.0,0.0,67,0.00,,,0.00,0.000000,,2013-03-05 12:22:00,
2013-03-05 04:52:00,32.0,22.0,-100.00,North,4,3.0,3.0,66,0.00,,,0.00,0.000000,,2013-03-05 12:52:00,
2013-03-05 05:02:00,32.0,22.0,-100.00,North,4,3.0,3.0,66,0.00,,,0.00,0.000000,,2013-03-05 13:02:00,
2013-03-05 05:11:00,32.0,22.0,-100.00,North,4,3.0,3.0,66,0.00,,,0.00,0.000000,,2013-03-05 13:11:00,
2013-03-05 05:21:00,32.0,22.0,-100.00,North,4,3.0,3.0,66,0.00,,,0.00,0.000000,,2013-03-05 13:21:00,
2013-03-05 05:52:00,32.0,22.0,-100.00,SSE,152,0.0,5.0,65,0.00,,,0.00,0.000000,,2013-03-05 13:52:00,
2013-03-05 06:02:00,32.0,22.0,-100.00,SSE,152,0.0,5.0,65,0.00,,,0.00,0.000000,,2013-03-05 14:02:00,
2013-03-05 06:11:00,32.0,22.0,-100.00,SSE,152,0.0,5.0,65,0.00,,,0.00,0.000000,,2013-03-05 14:11:00,
2013-03-05 06:21:00,32.0,22.0,-100.00,SSE,152,0.0,5.0,65,0.00,,,0.00,0.000000,,2013-03-05 14:21:00,
2013-03-05 06:52:00,33.0,23.0,-100.00,North,349,2.0,4.0,66,0.00,,,0.00,0.000000,,2013-03-05 14:52:00,
2013-03-05 07:01:00,33.0,23.0,-100.00,North,349,2.0,4.0,66,0.00,,,0.00,0.000000,,2013-03-05 15:01:00,
2013-03-05 07:11:00,33.0,23.0,-100.00,North,349,2.0,4.0,66,0.00,,,0.00,0.000000,,2013-03-05 15:11:00,
2013-03-05 07:21:00,33.0,23.0,-100.00,North,349,2.0,4.0,66,0.00,,,0.00,0.000000,,2013-03-05 15:21:00,
2013-03-05 07:52:00,32.0,22.0,-100.00,North,1,0.0,3.0,65,0.00,,,0.00,16.000000,,2013-03-05 15:52:00,
2013-03-05 08:01:00,32.0,22.0,-100.00,North,1,0.0,3.0,65,0.00,,,0.00,16.000000,,2013-03-05 16:01:00,
2013-03-05 08:11:00,32.0,22.0,-100.00,North,1,0.0,3.0,65,0.00,,,0.00,16.000000,,2013-03-05 16:11:00,
2013-03-05 08:21:00,32.0,22.0,-100.00,North,1,0.0,3.0,65,0.00,,,0.00,16.000000,,2013-03-05 16:21:00,
2013-03-05 08:52:00,34.0,23.0,-100.00,NE,46,1.0,5.0,63,0.00,,,0.00,53.000000,,2013-03-05 16:52:00,
2013-03-05 09:01:00,34.0,23.0,-100.00,NE,46,1.0,5.0,63,0.00,,,0.00,53.000000,,2013-03-05 17:01:00,
2013-03-05 09:11:00,34.0,23.0,-100.00,NE,46,1.0,5.0,63,0.00,,,0.00,53.000000,,2013-03-05 17:11:00,
2013-03-05 09:21:00,34.0,23.0,-100.00,NE,46,1.0,5.0,63,0.00,,,0.00,53.000000,,2013-03-05 17:21:00,
2013-03-05 09:52:00,37.0,24.0,-100.00,NNE,33,2.0,6.0,60,0.00,,,0.00,89.000000,,2013-03-05 17:52:00,
2013-03-05 10:01:00,37.0,24.0,-100.00,NNE,33,2.0,6.0,60,0.00,,,0.00,89.000000,,2013-03-05 18:01:00,
2013-03-05 10:11:00,37.0,24.0,-100.00,NNE,33,2.0,6.0,60,0.00,,,0.00,89.000000,,2013-03-05 18:11:00,
2013-03-05 10:21:00,37.0,24.0,-100.00,NNE,33,2.0,6.0,60,0.00,,,0.00,89.000000,,2013-03-05 18:21:00,
2013-03-05 10:53:00,38.0,25.0,-100.00,East,84,1.0,5.0,59,0.00,,,0.00,183.000000,,2013-03-05 18:53:00,
2013-03-05 11:01:00,38.0,25.0,-100.00,East,84,1.0,5.0,59,0.00,,,0.00,183.000000,,2013-03-05 19:01:00,
2013-03-05 11:11:00,38.0,25.0,-100.00,East,84,1.0,5.0,59,0.00,,,0.00,183.000000,,2013-03-05 19:11:00,
2013-03-05 11:21:00,38.0,25.0,-100.00,East,84,1.0,5.0,59,0.00,,,0.00,183.000000,,2013-03-05 19:21:00,
2013-03-05 11:52:00,42.0,25.0,-100.00,NE,39,5.0,10.0,50,0.00,,,0.00,258.000000,,2013-03-05 19:52:00,
2013-03-05 12:01:00,42.0,25.0,-100.00,NE,39,5.0,10.0,50,0.00,,,0.00,258.000000,,2013-03-05 20:01:00,
2013-03-05 12:11:00,42.0,25.0,-100.00,NE,39,5.0,10.0,50,0.00,,,0.00,258.000000,,2013-03-05 20:11:00,
2013-03-05 12:21:00,42.0,25.0,-100.00,NE,39,5.0,10.0,50,0.00,,,0.00,258.000000,,2013-03-05 20:21:00,
2013-03-05 12:52:00,43.0,23.0,-100.00,NNE,33,5.0,9.0,44,0.00,,,0.00,212.000000,,2013-03-05 20:52:00,
2013-03-05 13:01:00,43.0,23.0,-100.00,NNE,33,5.0,9.0,44,0.00,,,0.00,212.000000,,2013-03-05 21:01:00,
2013-03-05 13:11:00,43.0,23.0,-100.00,NNE,33,5.0,9.0,44,0.00,,,0.00,212.000000,,2013-03-05 21:11:00,
2013-03-05 13:21:00,43.0,23.0,-100.00,NNE,33,5.0,9.0,44,0.00,,,0.00,212.000000,,2013-03-05 21:21:00,
2013-03-05 13:52:00,43.0,20.0,-100.00,NNE,22,4.0,10.0,40,0.00,,,0.00,242.000000,,2013-03-05 21:52:00,
2013-03-05 14:01:00,43.0,20.0,-100.00,NNE,22,4.0,10.0,40,0.00,,,0.00,242.000000,,2013-03-05 22:01:00,
2013-03-05 14:11:00,43.0,20.0,-100.00,NNE,22,4.0,10.0,40,0.00,,,0.00,242.000000,,2013-03-05 22:11:00,
2013-03-05 14:21:00,43.0,20.0,-100.00,NNE,22,4.0,10.0,40,0.00,,,0.00,242.000000,,2013-03-05 22:21:00,
2013-03-05 14:52:00,46.0,23.0,-100.00,NE,49,4.0,9.0,40,0.00,,,0.00,197.000000,,2013-03-05 22:52:00,
2013-03-05 15:01:00,46.0,23.0,-100.00,NE,49,4.0,9.0,40,0.00,,,0.00,197.000000,,2013-03-05 23:01:00,
2013-03-05 15:11:00,46.0,23.0,-100.00,NE,49,4.0,9.0,40,0.00,,,0.00,197.000000,,2013-03-05 23:11:00,
2013-03-05 15:21:00,46.0,23.0,-100.00,NE,49,4.0,9.0,40,0.00,,,0.00,197.000000,,2013-03-05 23:21:00,
2013-03-05 15:52:00,45.0,24.0,-100.00,NW,310,0.0,11.0,44,0.00,,,0.00,136.000000,,2013-03-05 23:52:00,
2013-03-05 16:01:00,45.0,24.0,-100.00,NW,310,0.0,11.0,44,0.00,,,0.00,136.000000,,2013-03-06 00:01:00,
2013-03-05 16:11:00,45.0,24.0,-100.00,NW,310,0.0,11.0,44,0.00,,,0.00,136.000000,,2013-03-06 00:11:00,
2013-03-05 16:21:00,45.0,24.0,-100.00,NW,310,0.0,11.0,44,0.00,,,0.00,136.000000,,2013-03-06 00:21:00,
2013-03-05 16:52:00,42.0,22.0,-100.00,West,279,5.0,9.0,44,0.00,,,0.00,67.000000,,2013-03-06 00:52:00,
2013-03-05 17:01:00,42.0,22.0,-100.00,West,279,5.0,9.0,44,0.00,,,0.00,67.000000,,2013-03-06 01:01:00,
2013-03-05 17:11:00,42.0,22.0,-100.00,West,279,5.0,9.0,44,0.00,,,0.00,67.000000,,2013-03-06 01:11:00,
2013-03-05 17:21:00,42.0,22.0,-100.00,West,279,5.0,9.0,44,0.00,,,0.00,67.000000,,2013-03-06 01:21:00,
2013-03-05 17:52:00,43.0,24.0,-100.00,WSW,253,2.0,9.0,47,0.00,,,0.00,29.000000,,2013-03-06 01:52:00,
2013-03-05 18:01:00,43.0,24.0,-100.00,WSW,253,2.0,9.0,47,0.00,,,0.00,29.000000,,2013-03-06 02:01:00,
2013-03-05 18:11:00,43.0,24.0,-100.00,WSW,253,2.0,9.0,47,0.00,,,0.00,29.000000,,2013-03-06 02:11:00,
2013-03-05 18:21:00,43.0,24.0,-100.00,WSW,253,2.0,9.0,47,0.00,,,0.00,29.000000,,2013-03-06 02:21:00,
2013-03-05 18:52:00,42.0,24.0,-100.00,West,266,2.0,6.0,48,0.00,,,0.00,2.000000,,2013-03-06 02:52:00,
2013-03-05 19:01:00,42.0,24.0,-100.00,West,266,2.0,6.0,48,0.00,,,0.00,2.000000,,2013-03-06 03:01:00,
2013-03-05 19:11:00,42.0,24.0,-100.00,West,266,2.0,6.0,48,0.00,,,0.00,2.000000,,2013-03-06 03:11:00,
2013-03-05 19:21:00,42.0,24.0,-100.00,West,266,2.0,6.0,48,0.00,,,0.00,2.000000,,2013-03-06 03:21:00,
2013-03-05 19:52:00,40.0,23.0,-100.00,SW,223,1.0,7.0,51,0.00,,,0.00,0.000000,,2013-03-06 03:52:00,
2013-03-05 20:01:00,40.0,23.0,-100.00,SW,223,1.0,7.0,51,0.00,,,0.00,0.000000,,2013-03-06 04:01:00,
2013-03-05 20:11:00,40.0,23.0,-100.00,SW,223,1.0,7.0,51,0.00,,,0.00,0.000000,,2013-03-06 04:11:00,
2013-03-05 20:21:00,40.0,23.0,-100.00,SW,223,1.0,7.0,51,0.00,,,0.00,0.000000,,2013-03-06 04:21:00,
2013-03-05 20:52:00,40.0,28.0,-100.00,SSW,211,3.0,10.0,63,0.00,,,0.00,0.000000,,2013-03-06 04:52:00,
2013-03-05 21:01:00,40.0,28.0,-100.00,SSW,211,3.0,10.0,63,0.00,,,0.00,0.000000,,2013-03-06 05:01:00,
2013-03-05 21:11:00,40.0,28.0,-100.00,SSW,211,3.0,10.0,63,0.00,,,0.00,0.000000,,2013-03-06 05:11:00,
2013-03-05 21:22:00,40.0,28.0,-100.00,SSW,211,3.0,10.0,63,0.00,,,0.00,0.000000,,2013-03-06 05:22:00,
2013-03-05 21:52:00,38.0,27.0,-100.00,WSW,238,1.0,10.0,63,0.00,,,0.00,0.000000,,2013-03-06 05:52:00,
2013-03-05 22:01:00,38.0,27.0,-100.00,WSW,238,1.0,10.0,63,0.00,,,0.00,0.000000,,2013-03-06 06:01:00,
2013-03-05 22:11:00,38.0,27.0,-100.00,WSW,238,1.0,10.0,63,0.00,,,0.00,0.000000,,2013-03-06 06:11:00,
2013-03-05 22:22:00,38.0,27.0,-100.00,WSW,238,1.0,10.0,63,0.00,,,0.00,0.000000,,2013-03-06 06:22:00,
2013-03-05 22:52:00,38.0,33.0,-100.00,SSW,196,3.0,7.0,83,0.00,,,0.00,0.000000,,2013-03-06 06:52:00,
2013-03-05 23:01:00,38.0,33.0,-100.00,SSW,196,3.0,7.0,83,0.00,,,0.00,0.000000,,2013-03-06 07:01:00,
2013-03-05 23:11:00,38.0,33.0,-100.00,SSW,196,3.0,7.0,83,0.00,,,0.00,0.000000,,2013-03-06 07:11:00,
2013-03-05 23:21:00,38.0,33.0,-100.00,SSW,196,3.0,7.0,83,0.00,,,0.00,0.000000,,2013-03-06 07:21:00,
2013-03-05 23:52:00,37.0,37.0,-100.00,SW,224,0.0,5.0,100,0.00,,,0.00,0.000000,,2013-03-06 07:52:00,